TimeMDT,TemperatureF,Dew PointF,Humidity,Sea Level PressureIn,VisibilityMPH,Wind Direction,Wind SpeedMPH,Gust SpeedMPH,PrecipitationIn,Events,Conditions,WindDirDegrees,DateUTC
12:15 AM,28.4,19.4,69,30.38,10.0,Calm,Calm,-,N/A,,Clear,0,2013-03-13 06:15:00
12:35 AM,26.6,17.6,69,30.39,10.0,Calm,Calm,-,N/A,,Clear,0,2013-03-13 06:35:00
12:55 AM,26.6,15.8,64,30.39,10.0,Calm,Calm,-,N/A,,Clear,0,2013-03-13 06:55:00
1:15 AM,26.6,17.6,69,30.40,10.0,Calm,Calm,-,N/A,,Clear,0,2013-03-13 07:15:00
1:35 AM,24.8,15.8,69,30.40,10.0,Calm,Calm,-,N/A,,Clear,0,2013-03-13 07:35:00
1:55 AM,23.0,15.8,74,30.40,10.0,Calm,Calm,-,N/A,,Clear,0,2013-03-13 07:55:00
2:15 AM,23.0,17.6,80,30.40,10.0,Calm,Calm,-,N/A,,Clear,0,2013-03-13 08:15:00
2:55 AM,21.2,12.2,68,30.40,10.0,Calm,Calm,-,N/A,,Clear,0,2013-03-13 08:55:00
3:15 AM,21.2,17.6,86,30.39,10.0,North,3.5,-,N/A,,Clear,10,2013-03-13 09:15:00
3:35 AM,21.2,17.6,86,30.40,10.0,Calm,Calm,-,N/A,,Clear,0,2013-03-13 09:35:00
3:55 AM,21.2,17.6,86,30.39,10.0,ENE,4.6,-,N/A,,Clear,60,2013-03-13 09:55:00
4:15 AM,19.4,12.2,74,30.39,10.0,NE,3.5,-,N/A,,Clear,50,2013-03-13 10:15:00
4:35 AM,19.4,15.8,86,30.41,10.0,NNE,3.5,-,N/A,,Clear,20,2013-03-13 10:35:00
4:55 AM,19.4,15.8,86,30.42,10.0,Calm,Calm,-,N/A,,Clear,0,2013-03-13 10:55:00
5:15 AM,19.4,10.4,68,30.42,10.0,Calm,Calm,-,N/A,,Clear,0,2013-03-13 11:15:00
5:35 AM,17.6,12.2,79,30.43,10.0,Calm,Calm,-,N/A,,Clear,0,2013-03-13 11:35:00
5:55 AM,17.6,10.4,73,30.44,10.0,Calm,Calm,-,N/A,,Clear,0,2013-03-13 11:55:00
6:15 AM,17.6,14.0,86,30.44,10.0,Calm,Calm,-,N/A,,Clear,0,2013-03-13 12:15:00
6:35 AM,17.6,10.4,73,30.44,10.0,Calm,Calm,-,N/A,,Clear,0,2013-03-13 12:35:00
6:55 AM,17.6,12.2,79,30.45,10.0,Calm,Calm,-,N/A,,Clear,0,2013-03-13 12:55:00
7:15 AM,17.6,10.4,73,30.45,10.0,Calm,Calm,-,N/A,,Clear,0,2013-03-13 13:15:00
7:35 AM,17.6,12.2,79,30.45,10.0,Calm,Calm,-,N/A,,Clear,0,2013-03-13 13:35:00
7:55 AM,15.8,10.4,79,30.46,10.0,Calm,Calm,-,N/A,,Clear,0,2013-03-13 13:55:00
8:15 AM,17.6,12.2,79,30.47,10.0,NE,4.6,-,N/A,,Clear,50,2013-03-13 14:15:00
8:35 AM,17.6,14.0,86,30.47,10.0,NE,4.6,-,N/A,,Clear,50,2013-03-13 14:35:00
8:55 AM,21.2,15.8,80,30.48,10.0,NE,3.5,-,N/A,,Clear,50,2013-03-13 14:55:00
9:15 AM,23.0,15.8,74,30.49,10.0,NE,3.5,-,N/A,,Clear,50,2013-03-13 15:15:00
9:35 AM,24.8,15.8,69,30.49,10.0,Calm,Calm,-,N/A,,Clear,0,2013-03-13 15:35:00
9:55 AM,26.6,17.6,69,30.49,10.0,East,3.5,-,N/A,,Clear,80,2013-03-13 15:55:00
10:15 AM,28.4,19.4,69,30.49,10.0,Calm,Calm,-,N/A,,Clear,0,2013-03-13 16:15:00
10:35 AM,30.2,19.4,64,30.49,10.0,Calm,Calm,-,N/A,,Clear,0,2013-03-13 16:35:00
10:55 AM,33.8,21.2,60,30.49,10.0,Calm,Calm,-,N/A,,Clear,0,2013-03-13 16:55:00
11:15 AM,35.6,21.2,56,30.49,10.0,Calm,Calm,-,N/A,,Clear,0,2013-03-13 17:15:00
11:35 AM,37.4,23.0,56,30.49,10.0,Calm,Calm,-,N/A,,Clear,0,2013-03-13 17:35:00
11:55 AM,37.4,23.0,56,30.49,10.0,East,3.5,-,N/A,,Clear,100,2013-03-13 17:55:00
12:15 PM,37.4,21.2,52,30.48,10.0,ESE,3.5,-,N/A,,Clear,110,2013-03-13 18:15:00
12:35 PM,39.2,23.0,52,30.48,10.0,Calm,Calm,-,N/A,,Clear,0,2013-03-13 18:35:00
12:55 PM,39.2,23.0,52,30.47,10.0,Calm,Calm,-,N/A,,Clear,0,2013-03-13 18:55:00
1:15 PM,42.8,24.8,49,30.47,10.0,East,4.6,-,N/A,,Clear,100,2013-03-13 19:15:00
1:35 PM,42.8,23.0,46,30.46,10.0,East,3.5,-,N/A,,Clear,100,2013-03-13 19:35:00
1:55 PM,42.8,24.8,49,30.45,10.0,East,4.6,-,N/A,,Clear,90,2013-03-13 19:55:00
2:35 PM,46.4,26.6,46,30.44,10.0,East,4.6,-,N/A,,Clear,90,2013-03-13 20:35:00
2:55 PM,46.4,26.6,46,30.43,10.0,NNE,6.9,-,N/A,,Clear,30,2013-03-13 20:55:00
3:15 PM,48.2,26.6,43,30.43,10.0,NNE,9.2,-,N/A,,Clear,20,2013-03-13 21:15:00
3:35 PM,48.2,28.4,46,30.43,10.0,North,4.6,-,N/A,,Clear,360,2013-03-13 21:35:00
3:55 PM,48.2,26.6,43,30.43,10.0,NE,5.8,-,N/A,,Clear,50,2013-03-13 21:55:00
4:15 PM,48.2,26.6,43,30.42,10.0,Calm,Calm,-,N/A,,Clear,0,2013-03-13 22:15:00
4:35 PM,50.0,23.0,35,30.42,10.0,SW,10.4,-,N/A,,Clear,230,2013-03-13 22:35:00
4:55 PM,50.0,24.8,37,30.41,10.0,WSW,13.8,-,N/A,,Clear,240,2013-03-13 22:55:00
5:15 PM,48.2,23.0,37,30.41,10.0,SW,10.4,-,N/A,,Clear,230,2013-03-13 23:15:00
5:35 PM,48.2,24.8,40,30.41,10.0,WSW,6.9,-,N/A,,Clear,240,2013-03-13 23:35:00
5:55 PM,48.2,24.8,40,30.41,10.0,Calm,Calm,-,N/A,,Clear,0,2013-03-13 23:55:00
6:15 PM,46.4,21.2,37,30.41,10.0,North,4.6,-,N/A,,Clear,360,2013-03-14 00:15:00
6:35 PM,46.4,26.6,46,30.42,10.0,Calm,Calm,-,N/A,,Clear,0,2013-03-14 00:35:00
6:55 PM,44.6,24.8,46,30.42,10.0,NNW,4.6,-,N/A,,Clear,340,2013-03-14 00:55:00
7:15 PM,44.6,24.8,46,30.42,10.0,NNE,4.6,-,N/A,,Clear,20,2013-03-14 01:15:00
7:35 PM,42.8,24.8,49,30.43,10.0,NE,3.5,-,N/A,,Clear,50,2013-03-14 01:35:00
7:55 PM,41.0,23.0,49,30.43,10.0,North,3.5,-,N/A,,Clear,360,2013-03-14 01:55:00
8:15 PM,39.2,23.0,52,30.43,10.0,Calm,Calm,-,N/A,,Clear,0,2013-03-14 02:15:00
8:35 PM,37.4,24.8,60,30.44,10.0,NNE,3.5,-,N/A,,Clear,20,2013-03-14 02:35:00
8:55 PM,37.4,21.2,52,30.44,10.0,ENE,3.5,-,N/A,,Clear,70,2013-03-14 02:55:00
9:15 PM,37.4,21.2,52,30.45,10.0,Calm,Calm,-,N/A,,Clear,0,2013-03-14 03:15:00
9:35 PM,35.6,21.2,56,30.45,10.0,Calm,Calm,-,N/A,,Clear,0,2013-03-14 03:35:00
9:55 PM,33.8,21.2,60,30.45,10.0,Calm,Calm,-,N/A,,Clear,0,2013-03-14 03:55:00
10:15 PM,33.8,19.4,56,30.46,10.0,Calm,Calm,-,N/A,,Clear,0,2013-03-14 04:15:00
10:55 PM,30.2,19.4,64,30.47,10.0,ESE,3.5,-,N/A,,Clear,110,2013-03-14 04:55:00
11:15 PM,30.2,19.4,64,30.48,10.0,Calm,Calm,-,N/A,,Clear,0,2013-03-14 05:15:00
11:35 PM,30.2,21.2,69,30.48,10.0,Calm,Calm,-,N/A,,Clear,0,2013-03-14 05:35:00
11:55 PM,30.2,21.2,69,30.48,10.0,Calm,Calm,-,N/A,,Clear,0,2013-03-14 05:55:00